User: anonymous   Login
Location: Unspecified
(0.0000°N, 0.0000°E)
Time: 18:08:37
(UTC+00:00)
Language:

STARLINK-4107 - Orbit

View from above orbital plane
View from above orbital plane
View from above satellite
View from above satellite

Ground track
Ground track

The orbit is defined by the following mean orbital elements,

1 53287U          26145.42390168 +.00000000 +00000-0 -36047-4 0 00004
2 53287  53.2135 199.6492 0001441  74.1921 285.9230 15.08837557    08
Epoch (UTC): 25 May 2026 10:10:25
Eccentricity: 0.0001441
inclination: 53.2135°
perigee height: 539 km
apogee height: 541 km
right ascension of ascending node: 199.6492°
argument of perigee: 74.1921°
revolutions per day: 15.08837557
mean anomaly at epoch: 285.9230°

The dashed part of the orbit path shows where the satellite is in the earth's shadow,  

DLR